Regional Weather Roundup
Issued by NWS

Home | Current Version | Previous Version | Graphics & Text | Print | Product List | Glossary On
Versions: 1 2 3 4 5 6 7 8 9 10 11 12 13 14 15 16 17 18 19 20 21 22 23 24 25 26 27 28 29 30 31 32 33 34 35 36 37 38 39 40 41 42 43 44 45 46 47 48 49 50
000
ASUS45 KPSR 210400
RWRAZ

PRELIMINARY ARIZONA REGIONAL HOURLY WEATHER ROUNDUP
NATIONAL WEATHER SERVICE PHOENIX AZ
900 PM MST SAT DEC 20 2014

NOTE: FAIR INDICATES FEW OR NO CLOUDS BELOW 12,000 FEET WITH NO
SIGNIFICANT WEATHER AND/OR OBSTRUCTIONS TO VISIBILITY.

AZZ001>003-036-210500-
NORTHWEST ARIZONA

CITY           SKY/WX    TMP DP  RH WIND       PRES   REMARKS
KINGMAN        MOCLDY    38  33  82 E5        30.14R WCI  34
$$

AZZ004>008-015-016-018-210500-
NORTH CENTRAL ARIZONA

CITY           SKY/WX    TMP DP  RH WIND       PRES   REMARKS
GRAND CANYON   CLOUDY    31  26  82 CALM      30.15S
PRESCOTT       CLOUDY    37  28  70 S6        30.13F WCI  32
FLAGSTAFF      NOT AVBL
PAYSON         CLOUDY    41  32  70 CALM      30.16R
PAGE           CLOUDY    37  30  75 CALM      30.13F
$$

AZZ009>014-017-210500-
NORTHEAST ARIZONA

CITY           SKY/WX    TMP DP  RH WIND       PRES   REMARKS
WINSLOW        NOT AVBL
SAINT JOHNS    MOCLDY    34  28  79 S6        30.12F WCI  29
WINDOW ROCK    CLOUDY    34  27  75 MISG      30.13S
$$

AZZ023-210500-
GREATER PHOENIX AREA

CITY           SKY/WX    TMP DP  RH WIND       PRES   REMARKS
PHOENIX        CLOUDY    57  42  57 CALM      30.09S
LUKE AFB       CLOUDY    52  44  73 N6        30.10R
DEER VALLEY    CLOUDY    51  42  71 CALM      30.09S
SCOTTSDALE     CLOUDY    54  41  61 N3        30.12R
MESA-GATEWAY   MOCLDY    48  43  81 E3        30.12S
CHANDLER       MOCLDY    52  43  71 CALM      30.11R
$$

AZZ027-028-210500-
SOUTHWEST MARICOPA COUNTY AND PINAL COUNTY

CITY           SKY/WX    TMP DP  RH WIND       PRES   REMARKS
CASA GRANDE    CLOUDY    48  41  76 CALM      30.11R
GILA BEND      MOCLDY    53  43  69 S3        30.11F
$$

AZZ503-504-507>509-210500-
SOUTHEAST ARIZONA

CITY           SKY/WX    TMP DP  RH WIND       PRES   REMARKS
TUCSON         MOCLDY    48  38  68 SW5       30.14F
DAVIS-MONTHAN  PTCLDY    46  40  78 S2        30.12S
NOGALES        PTCLDY    43  28  55 CALM      30.14S
SIERRA VISTA   MOCLDY    43  30  60 SW8       30.15F
SAFFORD        MOCLDY    44  38  79 N5        30.11S
$$

AZZ020-021-025-026-031-210500-
SOUTHWEST ARIZONA

CITY           SKY/WX    TMP DP  RH WIND       PRES   REMARKS
YUMA           NOT AVBL
$$

CAZ031-033-041-043-047-048-061-210500-
SOUTHERN CALIFORNIA

CITY           SKY/WX    TMP DP  RH WIND       PRES   REMARKS
DOWNTOWN L.A.  MOCLDY    59  47  64 VRB3      30.14F
L.A. AIRPORT   MOCLDY    59  54  83 E5        30.14F
SAN DIEGO      MOCLDY    63  53  70 CALM      30.18R
BURBANK        CLOUDY    56  47  71 CALM      30.14S
ONTARIO        PTCLDY    53  46  77 CALM      30.15R
RIVERSIDE      PTCLDY    52  47  83 S3        30.16S HAZE
PALM SPRINGS   CLEAR     57  42  57 S3        30.12F
EL CENTRO NAS  CLEAR     52  41  66 CALM      30.13R
IMPERIAL       CLEAR     54  44  69 CALM      30.13R
BLYTHE         PTCLDY    52  48  86 W6        30.12S
$$

NVZ020-UTZ003-210500-
SOUTHERN NEVADA-UTAH

CITY           SKY/WX    TMP DP  RH WIND       PRES   REMARKS
LAS VEGAS      NOT AVBL
SALT LAKE CITY CLOUDY    41  34  76 SE8       30.06F
$$

NMZ009-TXZ055-210500-
NEW MEXICO-WEST TEXAS

CITY           SKY/WX    TMP DP  RH WIND       PRES   REMARKS
ALBUQUERQUE    MOCLDY    37  26  64 SW3       30.09F
EL PASO        CLEAR     45  28  51 CALM      30.12R
$$


........................KEY........................
SKY/WX - SKY CONDITION/WEATHER
TMP    - TEMPERATURE IN FAHRENHEIT
DP     - DEW POINT IN FAHRENHEIT
RH     - RELATIVE HUMIDITY IN PERCENT
WIND   - DIRECTION AND SPEED IN MILES PER HOUR (MPH)
VRB    - VARIABLE WIND DIRECTION
PRES   - MEAN SEA LEVEL PRESSURE IN INCHES OF MERCURY
         F - FALLING PRESSURE   R - RISING PRESSURE
         S - STEADY PRESSURE
VSB    - VISIBILITY IN MILES
HX     - HEAT INDEX IN FAHRENHEIT
WCI    - WIND CHILL INDEX IN FAHRENHEIT
TC     - TEMPERATURE IN CELSIUS WHICH IS ALSO KNOWN AS
         TEMPERATURE IN CENTIGRADE
AFB    - AIR FORCE BASE
         LUKE AFB IS LUKE AIR FORCE BASE
         DAVIS-MONTHAN IS DAVIS-MONTHAN AIR FORCE BASE
NAS    - NAVAL AIR STATION
         EL CENTRO NAS IS EL CENTRO NAVAL AIR STATION
N/A    - NOT AVAILABLE


USA.gov is the U.S. government's official web portal to all federal, state and local government web resources and services.